Flag for British Virgin Islands Weather past 2 weeks in Road Town, Tortola, British Virgin Islands

Now
79 °F

Passing clouds.


Feels Like: 81 °F
Forecast: N/A
Wind: 9 mph from Southeast

Location: Beef Island - Tortola

Current Time: Mar 28, 2015 at 7:09:41 PM

Latest Report: Mar 28, 2015 at 7:00 PM


Visibility: N/A

Pressure: 30.09 "Hg

Humidity: 74%

Dew point: 70 °F

Location of Road TownLocation

Historic Weather in Road Town — Graph

°F

Road Town temperature yesterday

Maximum temperature yesterday: 86 °F (at 1:00 PM)
Minimum temperature yesterday: 77 °F (at 6:50 AM)
Average temperature yesterday: 82 °F

Past Weeks' High & Low Weather Summary

 TemperatureHumidityPressure
High88 °F (Mar 15, 12:00 PM)89% (Mar 13, 8:00 PM)30.15 "Hg (Mar 13, 8:00 PM)
Low73 °F (Mar 13, 6:00 PM)55% (Mar 14, 3:00 PM)29.95 "Hg (Mar 18, 3:00 PM)
Average81 °F70%30.05 "Hg
* Reported Mar 13 6:00 PM — Mar 28 6:00 PM, Road Town, Weather by CustomWeather, © 2015

Note: Actual official high and low records may vary slightly from our data, if they occured in-between our weather recording intervals... More about our weather records

Advertising

Road Town weather history for previous 24 hours

 ConditionsComfort  
Time TempWeatherWind HumidityBarometerVisibility
6:00 PM
Sat, Mar 28
81 °FPassing clouds.12 mph70%30.09 "HgN/A
5:00 PM82 °FScattered clouds.10 mph66%30.07 "HgN/A
4:00 PM82 °FScattered clouds.12 mph66%30.07 "HgN/A
3:00 PM84 °FPassing clouds.12 mph62%30.09 "HgN/A
2:00 PM86 °FPassing clouds.13 mph59%30.09 "HgN/A
1:00 PM84 °FPassing clouds.13 mph58%30.12 "HgN/A
12:00 PM84 °FPassing clouds.12 mph66%30.15 "HgN/A
11:00 AM84 °FScattered clouds.10 mph66%30.15 "HgN/A
10:00 AM81 °FBroken clouds.16 mph74%30.15 "HgN/A
9:00 AM81 °FScattered clouds.12 mph70%30.15 "HgN/A
8:00 AM79 °FScattered clouds.12 mph70%30.12 "HgN/A
11:00 PM
Fri, Mar 27
77 °FPassing clouds.12 mph79%30.12 "HgN/A
10:00 PM79 °FPassing clouds.13 mph74%30.12 "HgN/A
9:00 PM79 °FPassing clouds.12 mph74%30.09 "HgN/A
8:00 PM79 °FPassing clouds.12 mph74%30.07 "HgN/A
7:00 PM79 °FPassing clouds.12 mph74%30.07 "HgN/A
Weather by CustomWeather, © 2015

See weather overviewHow to use our weather pages